User: anonymous   Login
Location: *
(40.7873°S, 98.7174°E)
Time: 09:06:58
(UTC+00:00)
Language:

TIMED - Orbit

View from above orbital plane
View from above orbital plane
View from above satellite
View from above satellite

Ground track
Ground track

The orbit data is extracted from the following two-line orbital elements,

1 26998U 01055B   22222.33906493  .00000588  00000-0  66846-4 0  9997
2 26998  74.0726 172.2867 0001147 306.6217  53.4858 14.88741939121026
Epoch (UTC): 10 August 2022 08:08:15
Eccentricity: 0.0001147
inclination: 74.0726°
perigee height: 601 km
apogee height: 602 km
right ascension of ascending node: 172.2867°
argument of perigee: 306.6217°
revolutions per day: 14.88741939
mean anomaly at epoch: 53.4858°
orbit number at epoch: 12102

The dashed part of the orbit path shows where the satellite is in the earth's shadow,  

DLR